SL-14 DEB, 45294

Orbit data source: Space-Track

SL-14 DEB, 45294 is space debris in LEO originally from a launch on Thu, 15 Aug 1991 UTC launched from the Plesetsk Missile And Space Complex (PKMTR). Debris objects in space refer to the collection of defunct objects orbiting the Earth. Examples of debris include non-operational satellites, rocket bodies, and fragments generated from explosions, collisions, or faulty payload assembly.

Loading next visibility...
SL-14 DEB details
Identifier
45294, 1991-056AG
Orbit
LEO
Last TLE update4 days ago
Origin
Flag of CISRosgidromet (CIS)
ManufacturerUnknown
MissionSpacecraft
Bus & MotorUnknown
MassUnknown
Launch date (UTC)
1991-08-15 (33 years ago)
Launch vehicleUnknown
Launch site
Plesetsk Missile And Space Complex (PKMTR)
Object type
Payload
Rocket body
Debris
Shape & HBRUnknown
Radar Cross SectionSmall (<0.1 m²)

Expand to show TLE details & history

TLE from 4 days ago
0 SL-14 DEB
1 45294U 91056AG  24357.86289791  .00001660  00000-0  40741-2 0  9997
2 45294  82.5684 160.7099 0005550 346.2147  13.8825 13.20394248232294
Epoch: 2024-12-22T20:42Z
Definitive object data (Epoch: 2024-12-22T20:42:34.379Z)
Latitude-0.00001°
Longitude118.17305°
Altitude1,181.953 km
Speed7.265 km/s
True Right ascension10h 42m 50s
True Declination0° 00' 00"
Sunlit
Object was in daylight at TLE epoch
Visualization TLE readout
Latitude72.35563°
Longitude139.71566°
Altitude1,196.111 km
Speed7.262 km/s
Apparent Right ascension20h 22m 00s
Apparent Declination43° 56' 22"
Sunlit
Object is in daylight
Visualization observer readout
Local Sidereal Time09:54:33
Azimuth16.47° NNE
Elevation-3.59°
Doppler factor1
Orbital elements
Apogee altitude1,184.649 km
Perigee altitude1,176.259 km
Semi-major axis7,558.591 km
Eccentricity0.000555
Inclination82.5684°
RAAN160.7099°
Arg. of periapsis346.2147°
True anomaly13.89777°
Mean anomaly13.8825°
Eccentric anomaly13.89013°
Mean motion3.3028 °/min
BSTAR0.0040741
Orbital period109 mins
Loading maneuver chart data...
Loading historical data...
Loading historical data...
Loading historical data...
Loading historical data...
Loading historical data...
Loading historical data...
Loading historical data...

SL-14 DEB Visibility forecast

Observer location: undefined°, undefined

Span
Click to sort rows by Start time (UTC) header in descending order
Start Az.
Max El. time (UTC)
Max El. Az.
Max El.
End time (UTC)
End Az.
13 mins2024-12-26 12:06:21.000Z209.184° SW2024-12-26 12:12:21.000Z274.344° WNW37.859°2024-12-26 12:19:21.000Z357.026° N
11 mins2024-12-26 21:42:21.000Z15.184° NNE2024-12-26 21:47:21.000Z73.965° E31.562°2024-12-26 21:53:21.000Z138.082° SSE
11 mins2024-12-26 23:32:21.000Z329.439° NNW2024-12-26 23:37:21.000Z270.067° WNW31.549°2024-12-26 23:43:21.000Z209.36° SW
8 mins2024-12-27 09:58:21.000Z116.069° SE2024-12-27 10:01:21.000Z86.546° E19.913°2024-12-27 10:06:21.000Z39.606° NE
|